Location: Newark
(50.5833°N, 5.7333°E)
Time: 22:00:12
(UTC+00:00)

Envisat - Visible Passes

Search period start: 20 September 2020 00:00
Search period end: 30 September 2020 00:00
Orbit: 764 x 766 km, 98.1° (Epoch: 20 September)

Date Brightness Start Highest point End Pass type
(mag) Time Alt. Az. Time Alt. Az. Time Alt. Az.
21 Sep 6.3 04:19:38 10° NE 04:22:17 14° E 04:24:55 10° ESE visible
22 Sep 6.3 18:21:41 10° WSW 18:24:22 14° W 18:27:05 10° NW visible
23 Sep 5.9 04:44:03 10° NE 04:48:03 23° E 04:52:02 10° SE visible
24 Sep 6.6 04:09:14 10° ENE 04:10:44 11° E 04:12:14 10° E visible
25 Sep 6.2 18:09:29 10° SW 18:12:52 18° W 18:16:15 10° NW visible
26 Sep 6.1 04:33:01 10° NE 04:36:34 19° E 04:40:05 10° SE visible
27 Sep 6.8 18:37:50 10° W 18:38:42 10° W 18:39:34 10° WNW visible
28 Sep 5.4 04:57:49 10° NNE 05:02:17 30° E 05:06:42 10° SSE visible
28 Sep 6.0 17:57:31 10° SW 18:01:22 21° W 18:05:14 10° NW visible
29 Sep 6.2 04:22:07 10° NE 04:25:03 15° E 04:27:58 10° ESE visible
